Location: Buckenweiler
(49.0667°N, 10.2500°E)
Time: 22:13:07
(UTC+00:00)

SL-12 R/B(2) - Pass Details

Date: 18 January 2026
Orbit: 1171 x 2178 km, 63.4° (Epoch: 18 February)

Event Time Altitude Azimuth Distance (km) Brightness Sun altitude
Rises 05:33:14 0° 228° (SW) 4,211 6.5 -14.8°
Reaches altitude 10° 05:35:49 10° 230° (SW) 3,325 5.9 -14.3°
Maximum altitude 05:43:55 76° 316° (NW) 1,537 4.4 -13.1°
Drops below altitude 10° 05:53:59 10° 43° (NE) 4,072 7.0 -11.5°
Sets 05:57:30 0° 45° (NE) 5,207 7.6 -10.9°
